Torna al catalogo

YZ-1 R/B

AttivoMEO
NORAD 61185·ROCKET BODY·🇨🇳 China

Lanciato Sep 19, 2024 da Xichang Satellite Launch Center

Loading…

Prossimi Passaggi (prossime 24 ore)

TLE

AggiornatoSource: Space-Track

Epoca: Sep 14, 2026, 08:33 UTC

1 61185U 24168A   26257.35659536 -.00000067  00000-0  00000-0 0  9990
2 61185  54.3037 300.7893 0076870 310.0490  49.3420  1.80096015 13073

Traccia YZ-1 R/B in tempo reale con AllMySat

Download on the App Store